BEESAT-2 (39136 NORAD) Tracking and Keplerian Element Data

This shows tracking and keplerian element data for the satellite.

Feedback or suggestion? Click here.




ElementValue
Catalog39136
NameBEESAT-2
Epoch Orbit59478
Epoch Day13.11286249
Epoch Year2024
RAAN352.3032
Inclination64.8514
Eccentricity0.0007672
Argument of Perigee281.3855
Mean Anonmoly78.6442
Mean Motion15.84660945
Decay Rate0.00466301
L11 39136U 13015G 24013.11286249 .00466301 00000+0 19016-2 0 9993
L22 39136 64.8514 352.3032 0007672 281.3855 78.6442 15.84660945594786



Live tracking and technical data element details for BEESAT-2 (NORAD 39136). BEESAT-2 can be tracked NOW for your location showing map with azimuth and elevation plus other details from your city location.







IsCatalogInMostPopularTable: catalog: 39136, numindb: 466
Update: records affected: 1



GetName: 39136 BEESAT-2

Hit Count: updated at: Thu, 23 Jan 2025 18:06:02 GMT